Regional Weather Roundup
Issued by NWS

Home | Current Version | Previous Version | Text Only | Print | Product List | Glossary On
Versions: 1 2 3 4 5 6 7 8 9 10 11 12 13 14 15 16 17 18 19 20 21 22 23 24 25 26 27 28 29 30 31 32 33 34 35 36 37 38 39 40 41 42 43 44 45 46 47 48 49 50
000
ASCA42 TJSJ 061810
RWRPR
PUERTO RICO/U.S. VIRGIN ISLANDS HOURLY WEATHER ROUNDUP
NATIONAL WEATHER SERVICE SAN JUAN PR
200 PM AST MON JUL 06 2015

PRZ001-004-061900-
PUERTO RICO

CITY           SKY/WX    TMP DP  RH WIND       PRES   REMARKS
SAN JUAN LMM   MOSUNNY   88  75  66 E21G26    30.07S HX  97
AGUADILLA      MOSUNNY   88  73  62 SE21G31   30.08F HX  96
CEIBA          PTSUNNY   88  73  62 E14G21    30.09S HX  96
$$

PRZ006-007-061900-
U.S. VIRGIN ISLANDS

CITY           SKY/WX    TMP DP  RH WIND       PRES   REMARKS
CHARLOTTE AMA  CLOUDY    84  72  65 SE18      30.06S
CHRISTIANSTED  MOSUNNY   90  70  51 E21       30.05F HX  95
$$

HOURLY WEATHER ROUNDUP FOR THE NEWS MEDIA

CITY           SKY/WX    TMP DP  RH WIND       PRES   REMARKS
ORLANDO        MOSUNNY   90  70  51 CALM      30.17F HX  95
NEW YORK       PTSUNNY   82  66  58 SE9       30.17F
NEWARK         CLOUDY    81  66  60 E8        30.14F
CHICAGO        CLOUDY    83  70  64 SW15      29.91F
HARTFORD       MOSUNNY   84  60  44 SW13G20   30.15S
BOSTON         PTSUNNY   74  63  68 E12       30.15S
DALLAS         PTSUNNY   89  67  47 S14G26    30.00F HX  92
PHILADELPHIA   PTSUNNY   84  70  62 S7        30.11F
LOS ANGELES    CLOUDY    65  60  84 SW5       30.07S
WASHINGTON DC  PTSUNNY   81  71  71 S9        30.08F


USA.gov is the U.S. government's official web portal to all federal, state and local government web resources and services.